Yaogan Weixing 20 fu xing er

operational
NORAD ID: 40111 Int'l Des: 2014-047 Owner: ZZB Country: CN Constellation: yaogan
LEO

关于 Yaogan Weixing 20 fu xing er

正在加载描述...

实时位置

正在加载3D地球...

即将过境

高度历史

Altitude vs Time

uPlot chart will show altitude changes over time

两行轨道根数

1 40111U 14047C 26063.62950167 .00000121 00000-0 22994-3 0 9999
2 40111 63.3790 289.2808 0381023 14.5232 346.6387 13.45441206568228
Epoch: Mar 4, 2026 • Age: 23 hours

当前状态

高度 1369.0 km
速度 7.04 km/s
星下点 -2.32°S, 40.2°W
发射日期 Aug 9, 2014
运行时间 11.5 years
类型 military

技术详情

分类 Payload
质量 500.00 kg
干质量 500.00 kg
总质量 500.00 kg
长度 0.50 m
直径 0.50 m
跨度 1.00 m
形状 Box + 2 Pan
制造商 CAST
阶段状态 In Orbit
所有者/国家 ZZB/CN

大型星座

Loading constellations...